Location: Macksville High School
(37.9611°N, 99.9654°W)
Time: 14:03:31
(UTC+00:00)

Cosmos 1470 Rocket - Pass Details

Date: 27 February 2020
Orbit: 604 x 633 km, 82.5° (Epoch: 04 April)

Event Time Altitude Azimuth Distance (km) Brightness Sun altitude
Rises 12:31:31 0° 346° (NNW) 2,933 6.8 -9.3°
Reaches altitude 10° 12:33:48 10° 341° (NNW) 2,022 6.0 -8.9°
Maximum altitude 12:38:08 49° 267° (W) 820 3.8 -8.0°
Drops below altitude 10° 12:42:26 10° 193° (SSW) 2,008 6.1 -7.2°
Sets 12:44:42 0° 188° (S) 2,909 7.0 -6.7°
